Simultaneous Nadir Overpasses (SNOs) Predictions

Prediction of SNOs between GOES-17 and NPP Satellite Orbit:

Table of predicted SNOs for the next 14.0 days since TLE Epoch: 10/5/2024
Index Date Time (GOES-17) GOES-17 Lat,Lon NPP Lat,Lon Distance(km) Time Diff (sec)
1 10/05/2024 20:16:43 0.01,-104.71 0.48,-102.73 226.86 80
2 10/07/2024 08:38:26 0.01,-104.71 0.71,-107.98 371.74 80
3 10/08/2024 08:16:58 0.01,-104.71 -0.25,-103.42 145.59 80
4 10/09/2024 20:38:49 -0.01,-104.70 -0.93,-108.71 457.08 80
5 10/10/2024 20:22:41 -0.00,-104.70 0.11,-104.17 60.55 80
6 10/13/2024 08:25:36 -0.00,-104.69 0.05,-104.87 20.36 80
7 10/14/2024 08:04:08 -0.00,-104.69 -0.95,-100.32 497.19 80
8 10/15/2024 20:25:58 -0.01,-104.69 -0.23,-105.60 104.76 80
9 10/16/2024 20:09:50 -0.02,-104.69 0.79,-101.05 413.65 80
10 10/18/2024 08:31:32 0.03,-104.69 0.38,-106.30 183.63 80
